San Angelo, TX

9:07 AM CDT on May 24, 2017 (GMT -0500)
San Angelo Regional-Mathis

Weather History for KSJT - July, 2013

Change the Weather History Date:

Saturday, July 20, 2013

  Actual Average Record
Temperature  
Mean Temperature 82 °F 83 °F  
Max Temperature 92 °F 95 °F 107 °F (1925)
Min Temperature 71 °F 71 °F 63 °F (1947)
Degree Days  
Heating Degree Days 0 0  
Month to date heating degree days 0 0  
Since 1 June heating degree days 0 0  
Since 1 July heating degree days 0 0  
Cooling Degree Days 17 18  
Month to date cooling degree days 328 356  
Year to date cooling degree days 1485 1280  
Since 1 June cooling degree days 889 820  
Growing Degree Days 31 (Base 50)    
Moisture  
Dew Point 66 °F    
Average Humidity 60    
Maximum Humidity 84    
Minimum Humidity 36    
Precipitation  
Precipitation 0.00 in 0.04 in 1.32 in (1938)
Month to date precipitation 3.14 0.81  
Year to date precipitation 10.92 11.42  
Sea Level Pressure  
Sea Level Pressure 29.91 in    
Wind  
Wind Speed 6 mph (South)    
Max Wind Speed 15 mph    
Max Gust Speed 21 mph    
Visibility 10 miles    
Events      
T = Trace of Precipitation, MM = Missing Value Source: NWS Daily Summary

Daily Weather History Graph

Daily Weather History Graph

Search for Another Location

Airport or City:

Trip Planner

Search our weather history database for the weather conditions in past years. The results will help you decide how hot, cold, wet, or windy it might be!

Date:

Astronomy

Jul. 20, 2013 Rise Set
Actual Time 6:51 AM CDT 8:45 PM CDT
Civil Twilight 6:24 AM CDT 9:12 PM CDT
Nautical Twilight 5:51 AM CDT 9:45 PM CDT
Astronomical Twilight 5:16 AM CDT 10:19 PM CDT
Moon 6:51 PM CDT (7/20) 4:32 AM CDT (7/20)
Length of Visible Light 14h 48m
Length of Day
13h 54m
Waxing Gibbous, 94% of the Moon is Illuminated
Jul 20
Waxing Gibbous
Jul 22
Full
Jul 29
Last Quarter
Aug 6
New
Aug 14
First Quarter

Hourly Weather History & Observations

Time (CDT) Temp. Heat Index Dew Point Humidity Pressure Visibility Wind Dir Wind Speed Gust Speed Precip Events Conditions
12:51 AM 75.0 °F - 69.1 °F 82% 29.96 in 10.0 mi South 3.5 mph - N/A   Mostly Cloudy
1:51 AM 73.9 °F - 68.0 °F 82% 29.95 in 10.0 mi South 4.6 mph - N/A   Mostly Cloudy
2:51 AM 73.9 °F - 66.9 °F 79% 29.94 in 10.0 mi South 5.8 mph - N/A   Scattered Clouds
3:51 AM 73.0 °F - 66.9 °F 81% 29.94 in 10.0 mi SSW 4.6 mph - N/A   Clear
4:51 AM 73.0 °F - 66.0 °F 79% 29.93 in 10.0 mi South 5.8 mph - N/A   Clear
5:51 AM 71.1 °F - 66.0 °F 84% 29.94 in 10.0 mi SSW 4.6 mph - N/A   Clear
6:51 AM 71.1 °F - 66.9 °F 87% 29.94 in 10.0 mi SW 4.6 mph - N/A   Clear
7:51 AM 73.0 °F - 66.9 °F 81% 29.95 in 10.0 mi SSW 3.5 mph - N/A   Clear
8:51 AM 75.9 °F - 69.1 °F 79% 29.96 in 10.0 mi SSW 6.9 mph - N/A   Clear
9:51 AM 80.1 °F 82.7 °F 68.0 °F 67% 29.95 in 10.0 mi SSW 8.1 mph - N/A   Clear
10:51 AM 82.0 °F 84.5 °F 66.9 °F 60% 29.95 in 10.0 mi South 9.2 mph - N/A   Clear
11:51 AM 84.0 °F 86.5 °F 66.9 °F 56% 29.95 in 10.0 mi South 6.9 mph - N/A   Clear
12:51 PM 87.1 °F 90.6 °F 68.0 °F 53% 29.93 in 10.0 mi South 9.2 mph - N/A   Partly Cloudy
1:51 PM 89.1 °F 90.3 °F 64.0 °F 43% 29.91 in 10.0 mi SE 6.9 mph - N/A   Partly Cloudy
2:51 PM 89.1 °F 89.3 °F 62.1 °F 40% 29.88 in 10.0 mi Variable 3.5 mph - N/A   Partly Cloudy
3:51 PM 88.0 °F 88.7 °F 63.0 °F 43% 29.88 in 10.0 mi SE 4.6 mph - N/A   Mostly Cloudy
4:51 PM 91.0 °F 91.9 °F 63.0 °F 39% 29.85 in 10.0 mi Variable 4.6 mph - N/A   Overcast
5:51 PM 91.0 °F 90.9 °F 61.0 °F 36% 29.83 in 10.0 mi SSE 11.5 mph 17.3 mph N/A   Partly Cloudy
6:51 PM 90.0 °F 90.0 °F 61.0 °F 38% 29.82 in 10.0 mi South 10.4 mph - N/A   Scattered Clouds
7:51 PM 88.0 °F 88.7 °F 63.0 °F 43% 29.81 in 10.0 mi South 5.8 mph - N/A   Clear
8:51 PM 82.9 °F 85.0 °F 66.0 °F 56% 29.84 in 10.0 mi South 3.5 mph - N/A   Clear
9:51 PM 80.1 °F 82.7 °F 68.0 °F 67% 29.85 in 10.0 mi South 3.5 mph - N/A   Clear
10:51 PM 78.1 °F - 66.9 °F 68% 29.87 in 10.0 mi Calm Calm - N/A   Clear
11:51 PM 77.0 °F - 68.0 °F 74% 29.88 in 10.0 mi South 3.5 mph - N/A   Clear